This is the latest recevied weather packets stored in our database for station/object EA1IDU-12. If no packets are shown the sender has not sent any weather packets the latest 10 day(s).
| Time | Temp. | Humidity | Pressure | Rain* | Wind** | Luminosity | Snow |
|---|---|---|---|---|---|---|---|
| 1788090903 | 30° C | 36% | 1027.5 hPa | - | - | - | - |
| 1788090003 | 29.44° C | 36% | 1027.5 hPa | - | - | - | - |
| 1788089103 | 29.44° C | 37% | 1027.6 hPa | - | - | - | - |
| 1788088203 | 28.89° C | 38% | 1027.5 hPa | - | - | - | - |
| 1788087302 | 28.33° C | 39% | 1027.7 hPa | - | - | - | - |
| 1788086402 | 27.78° C | 41% | 1027.8 hPa | - | - | - | - |
| 1788085502 | 27.22° C | 41% | 1027.9 hPa | - | - | - | - |
| 1788084602 | 26.67° C | 43% | 1027.8 hPa | - | - | - | - |
| 1788083702 | 26.11° C | 44% | 1027.9 hPa | - | - | - | - |
| 1788082802 | 26.11° C | 45% | 1027.9 hPa | - | - | - | - |
| 1788081901 | 25.56° C | 46% | 1027.9 hPa | - | - | - | - |
| 1788081001 | 25.56° C | 47% | 1028.2 hPa | - | - | - | - |
| 1788080101 | 24.44° C | 49% | 1028 hPa | - | - | - | - |
| 1788079201 | 24.44° C | 49% | 1028 hPa | - | - | - | - |
| 1788078301 | 23.89° C | 51% | 1027.9 hPa | - | - | - | - |
| 1788077401 | 23.89° C | 52% | 1027.9 hPa | - | - | - | - |
| 1788076500 | 23.89° C | 54% | 1027.8 hPa | - | - | - | - |
| 1788075600 | 23.33° C | 55% | 1027.8 hPa | - | - | - | - |
| 1788074700 | 21.67° C | 57% | 1027.5 hPa | - | - | - | - |
| 1788073800 | 19.44° C | 58% | 1027.7 hPa | - | - | - | - |
| 1788072900 | 17.78° C | 59% | 1027.6 hPa | - | - | - | - |
| 1788072000 | 15.56° C | 61% | 1027.6 hPa | - | - | - | - |
| 1788071100 | 13.89° C | 62% | 1027.6 hPa | - | - | - | - |
| 1788070199 | 12.78° C | 63% | 1027.5 hPa | - | - | - | - |
| 1788069299 | 11.67° C | 63% | 1027.4 hPa | - | - | - | - |
* Rain since midnight (hover to see other rain measurements)
** Current wind speed in m/s (hover to see current wind gust speed)